Location: Bergnershof
(48.9468°N, 10.9431°E)
Time: 10:55:32
(UTC+00:00)

SL-4 R/B - Pass Details

Date: 03 March 2021
Orbit: 428 x 663 km, 51.6° (Epoch: 13 April)

Event Time Altitude Azimuth Distance (km) Brightness Sun altitude
Rises 18:11:38 0° 285° (WNW) 2,501 7.3 -12.1°
Reaches altitude 10° 18:13:51 10° 289° (WNW) 1,594 5.7 -12.4°
Maximum altitude 18:17:23 61° 10° (N) 504 1.8 -13.0°
Enters shadow 18:19:15 24° 85° (E) 938 2.6 -13.3°
